Location: The Overlook
(35.3070°N, 106.4486°W)
Time: 14:32:40
(UTC+00:00)

Daily predictions for brighter satellites

Satellite Brightness Start Highest point End
(mag) Time Altitude Azimuth Time Altitude Azimuth Time Altitude Azimuth
OAO 3 Rocket 3.2 12:04:49 53° WSW 12:05:41 66° SSW 12:10:21 10° ESE
BREEZE-M DEB (TANK) 4.3 12:02:29 12° SW 12:07:02 57° SE 12:13:03 10° ENE
ARGOS Delta rocket 4.1 12:04:34 10° N 12:09:29 46° WNW 12:14:07 10° SSW
SJ-12 3.8 12:07:40 10° NNE 12:11:45 87° ESE 12:15:47 10° SSW
METEOR-M 4.1 12:08:38 10° N 12:13:52 58° WNW 12:19:04 10° SSW
NOSS 3-4 (A) 3.3 12:11:28 17° SW 12:15:59 61° NW 12:22:03 10° NNE
NOSS 3-4 (C) 3.3 12:11:25 16° SW 12:16:06 62° NW 12:22:11 10° NNE
Meteor PRIRODA 4.0 12:13:31 10° NNE 12:17:14 66° E 12:20:56 10° S
NOSS 3-2 (C) 4.2 12:13:14 13° NNW 12:20:28 80° ENE 12:29:12 10° SE
SWAS 4.3 12:18:24 26° NNW 12:20:45 88° WSW 12:25:00 10° SSE
ATLAS 5 CENTAUR R/B 4.5 12:24:23 13° NNW 12:24:23 13° NNW 12:24:57 10° NNW
Cosmos 1689 Rocket 3.2 12:19:42 10° SSE 12:22:26 42° ENE 12:24:54 12° N
GPS 2-04 Rocket1 2.8 12:21:20 35° SW 12:22:48 65° SSE 12:26:31 10° E
Cosmos 1933 3.2 12:23:11 10° N 12:27:17 85° W 12:31:22 10° S
Cosmos 1606 3.2 12:29:45 35° WNW 12:30:08 36° W 12:33:36 10° SSW
Cosmos 2084 3.8 12:27:20 17° NNW 12:30:42 68° ENE 12:35:09 10° SE
Envisat 4.4 12:27:22 10° NNE 12:32:09 40° E 12:36:54 10° SSE
Meteor 2-3 Rocket 3.7 12:26:31 10° SSW 12:32:10 69° W 12:37:55 10° N
Cosmos 2263 Rocket 2.8 12:29:12 17° WSW 12:32:45 33° WNW 12:37:51 10° N
Cosmos 2074 Rocket 4.4 12:28:23 10° S 12:34:30 65° E 12:40:38 10° NNE
ATLAS 2AS CENTAUR R/B 3.0 12:27:36 10° SW 12:35:26 64° WNW 12:43:19 10° NNE
USA 234 3.2 12:29:01 10° NE 12:35:33 78° NW 12:42:05 10° SW
H-2A R/B 4.3 12:32:09 10° NE 12:35:36 31° E 12:39:01 10° SSE
CENTAUR R/B 3.3 12:27:26 10° NNW 12:35:54 85° WSW 12:44:49 10° SSE
RESURS DK-1 3.4 12:32:05 10° S 12:36:05 48° ESE 12:40:05 10° NE
SL-4 R/B 4.1 12:37:42 11° NNW 12:37:42 11° NNW 12:38:41 10° N
deb Chang Zheng 4 4.2 12:34:36 10° N 12:38:28 32° WNW 12:42:20 10° SW
Cosmos 1782 3.3 12:38:44 10° N 12:42:44 64° E 12:46:43 10° SSE
FALCON 9 DEB 2.9 12:41:02 20° WSW 12:43:04 63° NW 12:46:14 10° NE
Meteor 1-31 Rocket 4.4 12:40:44 10° NNW 12:45:38 16° WSW 12:46:47 10° WSW
SKYMED 2 3.6 12:40:00 10° S 12:44:15 59° W 12:48:33 10° NNW
Delta 2 Rocket 4.0 12:42:32 20° W 12:45:34 50° SSW 12:49:44 10° SE
Cosmos 2184 Rocket 4.2 12:41:24 10° S 12:47:40 80° E 12:54:00 10° N
CRYOSAT 2 4.5 12:44:35 10° S 12:49:18 51° W 12:54:03 10° NNW
Cosmos 1515 Rocket 4.0 12:46:36 10° N 12:51:03 66° E 12:55:28 10° SSE
Cosmos 405 Rocket 4.1 12:49:07 10° SSE 12:52:33 39° E 12:56:01 10° NNE
Genesis I 3.5 12:48:48 10° SSW 12:52:34 66° ESE 12:56:22 10° NE
Meteor 1-4 Rocket 2.3 12:50:46 10° NNW 12:54:11 64° W 12:57:35 10° S
Lacrosse 5 2.2 12:50:19 10° WSW 12:55:08 43° NW 12:59:58 10° NNE
ALOS 3.9 12:52:45 10° NNW 13:00:20 - WSW 12:54:21 14° NW
Cosmos 1603 3.9 12:51:28 10° NNW 12:56:51 49° WSW 13:02:15 10° S
Lacrosse 4 Rocket 1.7 12:56:30 10° NNW 13:00:50 73° ENE 13:05:14 10° SSE
Cosmos 923 Rocket 4.0 12:55:59 10° NNW 13:01:18 90° WSW 13:06:37 10° SSE
BREEZE-M (TANK) 4.3 12:48:01 10° SW 13:01:43 63° SE 13:05:20 10° ENE
Okean O Rocket 3.2 13:00:12 10° NNE 13:04:24 41° E 13:08:35 10° S
CZ-4B R/B 3.4 13:03:54 10° WSW 13:04:31 11° W 13:04:31 11° W
USA 238 DEB 4.5 12:58:37 10° NW 13:05:19 39° WSW 13:12:12 10° S
USA 238 4.4 12:58:43 10° NW 13:05:25 39° WSW 13:12:18 10° S
Cosmos 1812 4.2 13:02:40 10° N 13:06:17 39° E 13:09:52 10° SSE
Cosmos 1943 3.5 13:01:44 10° NW 13:07:10 46° WSW 13:12:33 10° S
Cosmos 1500 Rocket 3.4 13:05:20 10° S 13:09:37 79° W 13:13:57 10° N
Cosmos 1151 Rocket 3.7 13:06:06 10° NNW 13:09:54 32° W 13:13:42 10° SSW
Cosmos 990 Rocket 4.1 13:05:10 10° SW 13:10:14 51° WNW 13:15:21 10° N
Cosmos 1461 3.3 13:06:07 10° NW 13:10:40 55° WSW 13:15:00 10° SSE
FALCON 9 DEB 3.7 13:09:09 10° WSW 13:12:04 32° NW 13:15:01 10° NNE
Cosmos 1633 4.3 13:11:08 10° WSW 13:12:49 13° WNW 13:14:30 10° NW
CZ-4B R/B 4.2 13:11:01 10° NNW 13:14:31 23° WNW 13:17:59 10° WSW
FALCON 9 DEB 3.9 13:12:28 10° W 13:15:17 28° NW 13:18:08 10° NNE
OAO 2 Rocket 3.4 13:12:39 10° W 13:17:44 86° S 13:22:56 10° E
Cosmos 1328 Rocket 4.4 13:14:34 10° NNW 13:18:27 31° W 13:22:19 10° SSW
Atlas Centaur 2 2.8 13:16:10 10° WSW 13:21:36 44° S 13:25:54 10° ESE
EO 1 Delta rocket 4.2 13:16:49 10° S 13:22:28 56° W 13:27:14 10° NNW
